Location: Quebec
(46.8000°N, 71.2500°W)
Time: 13:34:44
(UTC-04:00)

Tianhe-1 - Visible Passes

Search period start: 23 June 2021 00:00
Search period end: 03 July 2021 00:00
Orbit: 375 x 385 km, 41.5° (Epoch: 22 June)

Date Brightness Start Highest point End Pass type
(mag) Time Alt. Az. Time Alt. Az. Time Alt. Az.
23 Jun 2.5 03:35:02 16° SSW 03:36:36 22° SSE 03:39:08 10° ESE visible
24 Jun 3.2 02:36:29 15° SE 02:36:29 15° SE 02:37:44 10° ESE visible
24 Jun 2.1 04:09:02 10° WSW 04:11:50 30° S 04:14:39 10° ESE visible
25 Jun 2.2 03:09:57 24° SSW 03:10:41 27° S 03:13:23 10° ESE visible
26 Jun 3.4 02:11:15 14° ESE 02:11:15 14° ESE 02:11:55 10° ESE visible
26 Jun 2.0 03:43:20 13° WSW 03:45:42 30° S 03:48:31 10° ESE visible
27 Jun 2.1 02:44:37 29° SSE 02:44:37 29° SSE 02:47:05 10° ESE visible
28 Jun 2.0 03:18:01 23° SW 03:19:04 28° S 03:21:49 10° SE visible
29 Jun 3.3 02:19:29 15° SE 02:19:29 15° SE 02:20:13 10° ESE visible
29 Jun 2.5 03:51:35 11° WSW 03:53:38 19° SSW 03:55:58 10° SSE visible
30 Jun 2.9 02:53:20 18° SSE 02:53:20 18° SSE 02:54:31 10° SE visible
01 Jul 3.4 03:27:44 11° S 03:27:44 11° S 03:28:00 10° SSE visible
02 Jul 3.4 22:08:04 10° SSW 22:08:14 11° S 22:08:14 11° S visible
